Lapse_Rate
8.3 8.7 8.9 8.7 8.9 7.5 6.3 5.5 5.0 4.4 4.3 3.8 3.7 4.2 4.4 4.8 5.2 6.6 8.6 7.9 7.8 8.3 7.9 8.2 8.1 8.0 7.7 7.5 7.7 6.9 6.7 5.9 6.0 6.2 6.9 6.9 6.0 5.1 2.8 2.3 3.1 3.9 5.4
8.1 8.4 8.7 8.8 8.8 8.6 7.6 6.8 6.6 6.2 5.3 4.8 5.7 6.2 5.9 6.3 7.9 8.8 7.2 7.6 7.3 7.1 7.7 7.9 8.6 8.7 8.2 7.0 6.2 6.9 7.7 7.5 7.3 7.2 7.1 6.6 6.3 6.1 5.7 3.9 3.3 3.8 4.9
7.8 8.1 8.4 8.6 8.8 8.4 7.9 7.3 6.9 8.1 7.4 5.9 6.4 5.8 6.2 7.1 7.8 7.2 8.3 7.8 6.9 7.2 7.9 8.6 8.5 8.4 8.4 8.2 7.8 7.2 6.3 6.3 7.5 7.5 7.1 6.1 5.9 6.0 5.3 5.0 4.4 3.8 4.1
8.0 8.2 8.4 8.5 8.7 8.4 8.7 8.3 8.6 9.1 8.6 7.0 6.4 6.3 7.3 7.6 8.1 8.5 8.5 8.4 8.9 8.9 9.0 8.8 8.6 8.1 7.8 7.4 7.8 8.2 7.6 6.6 6.1 6.1 8.2 7.6 7.3 6.8 5.8 5.1 5.3 5.3 5.4
8.0 8.1 8.3 8.6 8.9 8.9 8.8 8.8 9.0 9.2 8.2 6.9 6.6 5.6 5.3 6.0 7.1 8.3 8.7 8.9 8.9 8.9 8.7 8.5 8.3 8.1 8.2 8.1 7.9 7.8 7.8 7.4 6.5 6.8 6.3 5.7 7.0 6.8 6.3 6.5 6.1 4.5 6.2
7.9 8.2 8.5 8.7 8.8 8.9 8.8 9.0 9.1 9.1 7.9 6.6 7.1 5.8 5.2 6.0 6.3 7.9 8.3 8.4 8.5 8.6 8.4 8.3 8.3 8.4 7.9 7.9 7.9 7.8 8.2 8.0 7.8 7.3 6.6 6.6 7.3 6.3 6.4 6.0 6.3 6.2 5.7
7.8 8.0 8.2 8.4 8.5 8.7 8.8 8.9 8.9 8.9 7.8 6.6 7.2 5.8 4.5 5.8 5.7 7.5 8.0 8.1 7.9 7.9 8.0 8.2 8.0 7.8 7.6 7.1 7.2 7.2 7.4 7.6 7.5 7.7 7.7 7.7 7.0 7.2 7.0 6.3 6.2 6.7 6.0
7.8 8.0 8.2 8.4 8.6 8.8 8.6 8.3 8.0 8.2 7.1 7.0 6.9 5.2 4.3 5.2 5.2 6.3 7.5 7.7 7.6 7.6 8.0 7.6 7.6 7.6 7.1 6.3 5.9 6.0 6.4 7.3 7.4 7.4 7.2 7.6 7.6 7.3 7.0 7.1 6.7 6.0 7.0
7.7 8.0 8.1 8.5 8.6 8.7 8.2 6.0 5.8 6.4 6.2 7.4 6.2 4.0 4.6 4.1 4.5 5.3 6.6 6.2 7.2 7.4 7.2 7.4 7.2 6.6 6.0 5.5 5.3 5.2 4.8 5.0 6.1 7.2 7.4 7.5 7.6 7.8 7.7 7.3 7.8 7.3 7.0
7.5 7.6 8.1 8.1 8.7 8.6 7.9 3.9 4.2 4.4 4.9 5.8 5.1 3.4 3.4 3.6 4.3 4.4 5.6 5.3 5.6 6.6 6.9 7.0 6.2 5.6 5.5 4.7 4.4 4.2 3.4 3.0 3.6 4.7 5.1 4.9 5.5 6.8 7.4 7.4 7.2 7.1 7.0
6.1 6.6 6.7 7.5 7.0 4.3 3.8 1.9 2.8 2.6 3.0 3.5 3.7 2.4 2.4 3.1 3.9 3.9 5.2 5.1 5.0 6.2 6.7 6.4 5.9 5.6 5.6 4.7 4.4 4.0 3.3 2.6 2.8 2.6 2.3 2.5 3.5 3.8 3.8 4.6 5.4 6.5 6.1
6.9 3.9 0.2 1.2 1.8 0.9 0.6 1.0 1.6 1.1 1.5 2.2 2.4 1.8 2.0 2.9 3.5 3.8 5.8 5.9 5.9 6.2 6.1 6.0 5.1 4.8 5.3 5.3 4.3 4.7 4.0 3.2 3.2 3.5 3.0 2.4 2.6 1.7 1.6 2.3 3.5 3.9 3.4
7.6 5.6 2.8 1.8 1.2 2.2 0.6 1.1 0.3 -0.2 0.5 1.1 1.4 1.4 1.5 2.7 3.3 4.2 6.4 5.3 4.8 5.6 6.2 6.4 5.9 4.9 4.5 4.6 4.1 4.1 4.3 3.9 3.5 3.6 5.4 4.6 3.2 1.7 0.9 0.4 1.1 1.7 4.0
7.4 7.5 6.4 5.9 3.8 3.0 1.2 0.4 0.6 0.2 0.1 0.2 0.8 0.9 1.2 2.6 3.3 4.4 5.3 5.2 4.4 4.0 4.9 4.3 4.8 5.9 4.8 4.5 3.9 3.0 2.5 2.7 3.2 3.6 4.3 5.8 5.3 3.6 2.0 0.8 0.1 1.0 1.1
7.6 7.7 7.7 7.8 7.8 5.7 3.7 2.7 1.8 0.3 0.2 -0.4 0.4 0.7 1.3 2.8 3.4 4.6 4.9 4.8 3.8 3.4 3.6 3.3 3.4 4.2 5.4 5.7 3.8 2.6 1.7 1.5 1.5 2.0 2.6 4.1 6.4 5.8 3.5 2.4 1.5 1.1 0.5
7.5 7.8 8.1 8.3 8.4 8.5 7.9 6.4 3.7 1.7 0.9 -0.1 -0.4 0.5 1.3 2.0 2.5 4.0 5.5 4.5 3.9 3.0 1.8 2.0 2.1 2.0 5.9 7.2 4.9 3.1 1.4 0.9 0.7 0.6 1.3 2.0 2.7 3.8 4.3 3.0 2.4 2.1 1.4
7.1 7.8 8.0 8.1 8.2 8.4 8.2 7.6 4.1 3.9 2.0 0.9 0.1 0.3 1.2 1.0 1.2 3.8 5.2 4.8 3.8 3.2 2.4 2.0 1.8 1.6 3.4 7.2 6.4 4.8 2.4 1.2 1.2 1.2 0.8 1.5 2.3 2.6 3.5 4.1 3.2 3.0 3.5
7.1 7.8 8.1 8.3 8.4 8.8 9.0 8.4 6.8 5.3 5.4 4.3 2.5 1.5 1.2 1.1 1.4 2.2 3.6 5.0 4.4 3.7 3.1 2.6 2.6 2.2 3.6 5.5 7.0 5.0 2.3 1.5 1.1 1.7 1.9 1.3 1.8 2.9 2.4 2.7 2.5 2.3 2.5
6.6 6.2 7.6 7.9 8.5 8.7 8.7 8.9 8.8 8.3 6.5 6.7 6.6 4.0 2.5 1.9 2.3 2.3 2.7 4.3 5.5 5.0 4.0 3.5 2.7 2.0 2.3 3.9 3.9 3.5 2.3 1.8 1.3 1.1 3.1 2.2 2.0 3.8 3.0 1.0 1.8 2.8 4.0
3.8 5.0 6.0 8.4 5.3 6.6 6.9 5.9 6.8 5.4 4.1 5.4 5.4 5.5 5.1 4.5 4.3 4.4 4.0 5.0 6.5 6.5 6.7 5.2 3.3 4.7 2.8 4.3 4.2 3.1 3.2 2.3 2.6 2.7 2.5 4.5 3.0 2.9 2.3 0.3 1.7 1.9 3.8
2.2 3.0 3.3 3.2 2.6 3.0 3.0 2.6 1.9 1.2 1.4 2.7 3.3 3.6 4.2 4.3 5.0 5.6 7.7 7.9 7.6 7.8 7.6 7.2 6.7 5.4 5.5 5.6 5.5 4.2 3.2 3.9 3.7 3.8 4.7 6.7 8.0 5.7 4.0 3.2 2.4 4.1 3.2
2.9 2.5 2.0 2.1 1.6 1.4 1.6 1.3 0.5 0.6 1.1 1.6 1.9 2.1 2.8 4.2 4.8 5.9 6.9 7.3 8.1 7.8 7.7 7.7 7.3 6.1 4.7 4.2 5.0 4.8 5.0 6.8 5.0 5.0 6.1 7.2 9.4 7.2 5.9 3.9 4.7 4.8 3.3
3.4 3.2 2.0 1.5 1.4 1.5 1.7 0.4 0.3 0.9 1.3 1.4 1.7 2.7 3.4 4.2 5.8 7.1 7.2 7.7 7.5 7.4 7.6 7.9 7.4 6.2 4.6 3.7 4.3 4.9 5.9 7.5 7.7 7.7 8.7 9.4 8.8 8.3 6.6 6.3 5.1 2.6 2.5
5.0 4.0 2.7 1.8 1.2 1.8 2.4 1.7 1.0 1.4 1.6 2.4 2.8 3.3 4.4 6.2 7.5 6.0 4.7 4.3 4.7 6.9 6.6 6.2 6.0 5.1 3.1 2.2 2.6 3.6 4.1 5.8 6.6 7.4 7.3 6.7 7.9 6.1 5.5 7.1 6.6 5.7 6.3
7.5 6.6 4.3 3.6 2.9 3.3 2.8 1.8 2.0 2.3 3.3 3.9 4.3 5.2 5.7 4.7 4.2 3.6 4.2 3.5 3.4 4.0 4.0 4.8 3.6 2.7 1.6 2.3 3.9 4.1 4.5 5.7 7.2 6.8 6.9 7.1 7.3 7.7 7.6 7.6 7.9 7.3 6.9
8.4 8.5 7.8 6.6 5.2 4.8 4.1 3.3 3.6 4.2 4.6 5.2 5.8 6.7 6.8 7.0 5.3 4.5 3.8 5.0 4.7 4.7 4.8 4.8 4.4 3.3 3.7 4.0 4.4 5.7 7.9 7.6 9.0 6.8 6.9 6.8 7.1 7.4 7.7 7.5 7.6 7.7 7.5
Wind_Speed
8 6 4 6 6 8 9 9 9 9 8 8 9 9 9 9 9 13 17 20 20 19 17 10 10 12 10 12 12 10 11 10 8 8 7 7 7 7 8 9 11 14 15
9 7 5 5 5 6 7 7 9 9 8 7 7 7 8 9 9 12 19 20 22 22 18 14 11 11 10 13 13 14 10 9 8 8 7 5 5 7 9 10 11 13 11
11 7 5 5 4 6 6 7 8 8 8 9 7 8 7 8 8 10 9 15 22 21 19 18 12 11 10 9 12 12 13 10 9 9 6 3 5 4 5 11 10 13 11
6 6 5 4 4 4 4 5 6 7 8 9 8 10 8 9 9 8 10 11 19 18 19 17 15 10 9 10 10 10 10 11 9 10 8 10 8 5 5 3 5 9 11
10 8 6 3 4 4 4 4 5 6 8 8 9 7 9 8 8 8 12 11 12 17 17 17 15 11 10 12 13 11 11 9 10 9 7 10 8 7 5 8 9 4 7
9 8 7 5 5 5 4 4 5 6 8 8 9 10 11 11 9 11 9 9 9 9 14 17 15 13 11 12 11 12 12 10 10 9 10 8 5 8 6 3 5 7 5
10 9 8 5 5 4 5 4 6 7 8 8 9 10 11 11 11 12 9 12 9 9 11 12 12 10 11 12 12 12 12 10 10 11 9 8 8 7 7 6 7 6 5
8 7 6 4 4 3 6 6 7 8 8 8 9 9 11 7 7 10 10 8 9 10 14 12 14 13 13 9 10 8 9 11 10 13 10 7 7 8 8 8 7 10 7
10 8 8 4 3 3 6 7 7 8 8 8 8 9 9 10 10 11 10 9 11 11 12 14 13 11 11 11 11 7 9 11 10 9 9 8 7 7 8 8 9 8 10
11 9 7 6 4 4 7 7 7 7 7 8 8 8 9 10 9 9 10 11 11 13 14 11 12 13 12 12 11 9 12 14 10 8 10 9 7 6 8 9 9 9 10
13 10 7 8 6 7 6 5 4 6 7 8 8 8 7 8 8 8 9 9 10 11 12 14 13 13 12 13 12 12 14 14 13 13 12 12 11 7 7 6 5 4 5
13 13 8 6 5 4 2 3 5 6 6 7 7 7 7 8 8 8 9 11 11 9 11 12 14 15 15 13 14 13 14 15 15 14 15 14 10 11 10 7 9 7 7
14 13 9 6 5 5 3 3 4 3 4 6 6 7 7 7 8 8 8 10 12 13 13 13 13 14 15 15 15 15 14 15 15 14 12 15 15 13 10 10 9 8 6
13 12 10 9 8 5 5 3 5 3 4 4 6 6 6 6 6 7 9 10 11 13 13 14 14 13 15 16 15 15 15 14 14 14 14 15 16 17 14 13 12 10 9
13 10 9 9 8 8 8 7 6 3 4 5 5 5 6 6 7 8 9 10 11 12 11 13 14 13 13 12 15 15 16 16 15 16 16 16 20 27 24 13 15 13 11
12 11 10 10 9 9 7 8 8 6 6 5 4 4 5 4 6 8 8 8 10 11 12 14 14 14 10 22 25 18 14 16 16 15 16 16 22 19 26 27 31 25 14
11 11 10 9 8 8 7 8 8 6 9 6 4 4 3 3 4 6 6 7 8 9 11 12 13 14 13 22 20 21 11 13 15 16 15 15 14 18 14 21 23 25 28
10 10 9 9 9 9 8 9 10 8 6 8 7 4 2 3 3 3 5 4 5 7 9 9 11 12 13 24 20 19 9 12 14 15 16 15 16 19 16 13 14 15 15
9 8 8 9 8 9 8 8 8 8 8 6 6 8 5 3 3 3 4 3 3 4 6 7 9 12 13 28 24 15 10 10 12 13 15 15 16 28 26 14 14 14 13
8 8 9 9 7 4 7 6 6 7 6 5 6 6 6 6 3 2 2 2 2 3 4 6 8 17 10 26 26 17 8 11 9 10 12 26 22 28 29 14 13 13 12
11 9 8 9 7 6 9 8 7 6 4 4 6 5 5 5 5 5 3 3 3 2 3 6 6 7 13 14 24 24 8 7 8 8 8 9 25 26 26 24 15 15 10
9 9 9 8 6 6 8 8 7 5 5 4 3 3 3 3 3 3 1 3 3 4 4 6 7 8 10 22 22 23 20 16 7 7 6 7 22 23 25 18 25 22 10
9 8 9 9 6 6 7 9 8 6 5 5 3 3 3 3 3 4 5 4 4 4 5 6 5 6 7 7 20 21 20 18 7 4 11 17 19 19 12 24 25 16 10
11 11 10 9 8 7 8 8 9 7 6 6 5 3 4 4 5 5 6 7 7 5 6 5 6 6 7 7 6 6 9 12 8 8 5 8 6 8 5 7 9 8 9
11 11 11 11 11 10 8 9 9 9 8 7 6 6 5 6 7 6 5 6 6 7 6 5 6 5 5 7 11 9 5 6 8 5 5 5 6 7 7 7 8 8 8
12 12 12 12 13 12 11 12 11 10 9 8 6 5 5 6 7 6 6 11 10 12 14 15 9 6 11 14 15 13 11 18 16 5 6 6 6 7 8 8 8 7 8
Wind_Direction
123 114 76 72 34 46 32 20 18 14 5 7 355 353 344 339 333 331 330 357 344 352 346 334 335 329 319 316 311 304 305 300 297 297 276 266 223 207 207 225 234 240 241
160 138 115 93 62 51 36 17 20 12 22 8 343 346 343 328 328 341 348 342 352 349 343 337 331 326 320 316 314 319 306 290 290 282 294 279 267 229 218 220 225 233 234
160 150 143 98 66 52 33 13 18 16 32 9 358 355 333 342 343 343 340 348 343 338 333 333 323 322 312 299 299 306 302 308 306 283 265 280 231 260 227 225 224 224 226
126 137 155 117 85 66 55 20 10 25 29 16 3 359 354 345 344 341 341 338 332 335 327 327 326 325 315 306 302 285 293 306 297 314 285 275 283 282 302 292 228 238 234
160 148 142 118 109 88 59 38 3 36 36 14 16 7 3 352 343 340 338 337 334 328 327 329 329 320 311 301 290 282 280 277 286 290 296 319 301 280 270 273 281 276 245
149 151 141 152 117 82 56 18 12 41 37 16 19 19 8 352 350 350 343 337 329 327 330 332 320 313 307 303 299 297 281 272 267 276 279 284 288 324 330 301 284 301 288
162 166 171 164 99 57 49 3 22 31 32 13 21 25 15 1 354 351 342 337 335 335 334 331 326 320 321 312 302 296 285 275 268 272 268 273 283 304 307 301 298 287 308
161 156 138 114 87 70 52 26 19 25 21 16 23 26 19 3 2 350 348 344 343 338 338 335 335 333 331 324 312 298 288 275 261 254 263 264 266 281 287 291 305 298 284
158 164 128 125 93 59 68 44 18 25 22 19 28 28 16 7 2 358 356 352 348 342 342 348 344 343 341 340 336 339 321 274 255 264 254 254 251 254 264 264 261 252 271
158 136 134 119 99 68 78 52 25 24 20 20 36 29 15 7 3 0 1 0 350 347 348 356 355 352 359 355 358 2 359 32 32 28 22 11 345 297 262 264 252 246 246
141 135 107 123 77 46 48 50 28 33 27 27 29 34 20 8 6 2 1 2 344 359 359 3 1 1 1 9 15 20 19 29 31 29 27 17 2 348 344 337 332 301 283
136 120 117 83 91 105 82 79 42 44 26 37 32 34 23 11 11 2 2 5 358 14 6 6 10 8 8 14 17 22 27 28 29 29 29 23 16 15 5 352 350 347 337
137 130 140 149 147 165 121 99 92 60 35 45 41 35 26 15 6 5 9 25 10 11 17 14 18 18 14 16 20 22 27 29 26 19 19 31 25 26 19 16 8 357 6
150 152 156 160 165 161 149 143 99 84 70 51 51 41 26 15 6 22 15 33 24 17 23 17 15 20 24 26 26 24 24 24 26 21 18 19 34 31 27 27 22 21 33
157 161 158 156 157 163 162 160 127 112 92 76 60 50 33 21 25 30 31 25 36 26 22 26 18 14 31 31 33 30 28 28 25 25 22 20 30 41 40 39 33 34 44
162 161 166 164 170 167 160 144 129 136 103 88 74 49 47 29 33 29 47 35 37 33 29 27 21 18 18 37 41 41 37 33 32 27 23 21 23 27 43 44 46 47 40
155 165 166 166 158 155 157 144 140 137 122 106 88 69 42 45 39 41 34 46 47 43 35 34 26 21 18 26 42 48 44 41 36 35 29 27 23 24 27 39 42 47 50
149 159 157 163 149 152 164 138 138 135 116 121 120 110 72 55 37 48 56 41 55 59 52 39 41 30 27 28 34 42 54 46 39 32 36 31 29 30 26 28 41 37 39
133 135 143 137 161 151 147 140 137 128 112 101 108 128 130 100 68 36 54 33 45 58 69 59 42 44 31 32 32 29 39 41 42 31 31 39 33 35 33 32 35 36 35
106 117 128 147 88 109 88 96 103 90 90 90 96 83 97 97 76 96 108 63 54 56 74 74 67 49 37 37 36 35 35 36 35 33 26 34 38 35 37 33 31 33 26
110 94 84 110 100 83 104 99 102 103 81 71 87 72 87 88 67 53 28 88 91 71 81 78 67 62 46 31 38 36 30 44 32 32 27 26 36 38 38 37 35 33 16
123 113 117 119 113 108 121 127 119 117 110 102 96 88 88 81 75 86 43 39 35 60 75 71 65 48 40 29 27 32 33 30 38 29 23 26 33 36 38 37 35 34 27
153 136 135 133 137 136 145 137 137 136 138 120 116 112 94 74 46 52 30 43 31 50 49 50 60 59 42 30 24 21 24 18 13 28 33 34 37 36 35 39 33 24 24
169 160 152 153 155 160 155 143 144 145 141 148 152 159 138 92 53 73 57 44 29 36 39 54 32 53 39 20 14 15 8 356 359 339 31 19 27 39 25 30 43 33 20
173 172 175 173 168 166 154 149 153 157 159 158 162 150 125 101 87 63 68 81 52 50 55 42 53 42 31 17 16 14 9 360 347 22 33 24 21 20 27 27 28 33 25
172 178 181 177 173 173 166 166 167 174 164 164 167 169 152 157 140 129 100 87 96 82 77 68 62 51 39 24 17 13 26 21 24 34 32 25 16 17 25 22 17 18 17